Location: Holbach
(51.5399°N, 10.6036°E)
Time: 19:07:54
(UTC+00:00)

Meteor 1-24 Rocket - Pass Details

Date: 18 September 2020
Orbit: 790 x 927 km, 81.2° (Epoch: 22 October)

Event Time Altitude Azimuth Distance (km) Brightness Sun altitude
Rises 19:04:31 0° 351° (N) 3,338 7.3 -15.9°
Reaches altitude 10° 19:07:01 10° 358° (N) 2,418 6.4 -16.3°
Maximum altitude 19:12:11 41° 69° (ENE) 1,190 4.1 -17.0°
Enters shadow 19:14:23 29° 117° (ESE) 1,501 4.4 -17.3°
